Regional Weather Roundup
Issued by NWS Wakefield, VA

Home | Current Version | Previous Version | Text Only | Print | Product List | Glossary Off
Versions: 1 2 3 4 5 6 7 8 9 10 11 12 13 14 15 16 17 18 19 20 21 22 23 24 25 26

000
ASUS41 KAKQ 261015
RWRAKQ

REGIONAL WEATHER ROUNDUP
NATIONAL WEATHER SERVICE WAKEFIELD VA
600 AM EDT THU MAY 26 2016

Note: "fair" indicates few or no clouds below 12,000 feet with no
significant weather and/or obstructions to visibility. * = Denotes
station may not report precipitation (e.g., rain,snow,etc.),
thunder or fog.

VAZ042-051-052>054-056-261100-
NORTHERN VIRGINIA

CITY           SKY/WX    TMP DP  RH WIND       PRES   REMARKS
WASH NATIONAL  MOCLDY    63  61  93 CALM      30.12S
DULLES         MOCLDY    57  55  93 CALM      30.12S
FORT BELVOIR   FAIR      56  55  96 CALM      30.12R FOG
QUANTICO       MOCLDY    60  58  92 NW3       30.13R
FREDERICKSBRG* NOT AVBL
STAFFORD*      FAIR      53  52  96 CALM      30.16R FOG
WARRENTON      FAIR      56  52  85 CALM      30.12R FOG
CULPEPER*      FAIR      57  57  99 CALM      30.13S FOG
MANASSAS*      FAIR      55  55 100 CALM      30.12S
LEESBURG*      FAIR      59  59 100 CALM      30.13S
WINCHESTER     CLOUDY    63  55  77 CALM      30.13R
FRONT ROYAL*   CLOUDY    63  55  77 S5        30.12S
LURAY*         CLOUDY    59  59 100 CALM      30.14S
$$

VAZ048-049-060>072-079>083-261100-
CENTRAL AND SOUTH CENTRAL VIRGINIA

CITY           SKY/WX    TMP DP  RH WIND       PRES   REMARKS
RICHMOND       FAIR      61  58  90 CALM      30.14R
CHESTERFIELD*  FAIR      57  46  67 CALM      30.16
PETERSBURG*    FAIR      57  57 100 CALM      30.16R FOG
HANOVER        FAIR      59  56  89 CALM      30.15R
TAPPAHANNOCK*  FAIR      63  61  95 S5        30.15R
QUINTON*       FAIR      57  57  99 E8        30.14S
CHARLOTTSVILLE MOCLDY    63  57  81 CALM      30.13R
GORDONSVILLE*  CLOUDY    60  59  97 CALM      30.12S
ORANGE*        CLOUDY    61  61 100 CALM      30.14S
LOUISA*          N/A    N/A N/A N/A MISG      30.12S
BUMPASS*       FAIR      60  57  89 CALM      30.13R
FARMVILLE*     MOCLDY    58  58 100 CALM      30.14R
CREWE*         FAIR      57  57 100 CALM      30.15R
FORT PICKETT*  NOT AVBL
CHASE CITY*    FAIR      60  59  94 CALM      30.17R
CLARKSVILLE*   FAIR      61  61 100 CALM      30.17R
SOUTH HILL*    FAIR      58  58  99 CALM      30.22R
LAWRENCEVILLE* FAIR      60  60 100 CALM      30.16R
EMPORIA*       FAIR      57  55  94 CALM      30.18R
$$

VAZ088>098-261100-
SOUTHEAST VIRGINIA

CITY           SKY/WX    TMP DP  RH WIND       PRES   REMARKS
NORFOLK        FAIR      66  58  75 SW9       30.16R
VIRGINIA BEACH FAIR      69  58  67 SW8       30.16R
NORFOLK NAVAL  FAIR      68  59  73 SW6       30.18R
WEST POINT*    FAIR      65  60  82 S3        30.16S
SALUDA*        FAIR      66  62  87 SW8       30.14R
NEWPORT NEWS   FAIR      67  61  81 SW5       30.16R
LANGLEY AFB    FAIR      67  61  80 SW6       30.16R
FORT EUSTIS    FAIR      67  58  72 SE2       30.14R
WILLIAMSBURG*  FAIR      64  63  94 SW5       30.16S
HR EXEC AP*    FAIR      61  55  82 SW3       30.19R
FRANKLIN*      FAIR      62  59  88 S5        30.18R
US460-WAKEFLD  FAIR      60  58  92 CALM      30.16R FOG
$$

VAZ020-022-025-037-045-261100-
WEST CENTRAL AND SOUTHWEST VIRGINIA

CITY           SKY/WX    TMP DP  RH WIND       PRES   REMARKS
STAUNTON*      CLOUDY    58  57  96 CALM      30.18S
WAYNESBORO*    CLOUDY    60  56  85 CALM      30.17S
HOT SPRINGS VA CLOUDY    64  54  71 W8        30.26S
LYNCHBURG      CLOUDY    59  57  93 CALM      30.16S
DANVILLE       FAIR      58  57  97 CALM      30.17R
SOUTH BOSTON*  FAIR      56  55  95 CALM      30.16R
MARTINSVILLE   CLOUDY    55  55  99 CALM      30.19S
ROANOKE        CLOUDY    67  59  75 W3        30.19R
BLACKSBURG     CLOUDY    61  59  94 CALM      30.24S
DUBLIN*        LGT RAIN  63  62  96 CALM      30.22S
MARION*        CLOUDY    62  59  89 CALM      30.26S
HILLSVILLE*    CLOUDY    62  58  86 SW3       30.23R
RICHLANDS*     CLOUDY    67  53  62 SE3       30.22F
WISE*          CLOUDY    66  52  59 CALM      30.23R
ABINGDON*      CLOUDY    66  62  86 E3        30.21R
$$

MDZ021>025-VAZ099-100-261100-
SOUTHERN MARYLAND AND THE DELMARVA PENINSULA

CITY           SKY/WX    TMP DP  RH WIND       PRES   REMARKS
PATUXENT RIVER MOCLDY    65  57  75 SW3       30.13R
BAY BRIDGE APT NOT AVBL
LEONARDTOWN    CLEAR     61  55  82 CALM      30.14S
DOVER          PTCLDY    63  63  97 S3        30.11R
GEORGETOWN     CLEAR     58  55  90 CALM      30.14R
EASTON         PTCLDY    62  62  99 CALM      30.16R
CAMBRIDGE        N/A     59  57  94 SE3       30.12S
SALISBURY      CLEAR     60  57  89 CALM      30.14R
OCEAN CITY     CLEAR     58  56  93 CALM      30.14R
WALLOPS ISLAND FAIR      67  60  78 W7        30.15R
ACCOMACK*      FAIR      66  59  77 SW5       30.15R
$$

NCZ012>017-030>032-261100-
NORTH CENTRAL AND EASTERN NORTH CAROLINA

CITY           SKY/WX    TMP DP  RH WIND       PRES   REMARKS
ROANOKE RAPIDS FAIR      59  59 100 S3        30.17R
RALEIGH        MOCLDY    66  61  84 CALM      30.18R
ELIZABETH CITY MOCLDY    67  63  87 SW8       30.18R
AHOSKIE*       NOT AVBL
EDENTON*       CLOUDY   N/A N/A N/A SW6       30.19R
CURRITUCK*     MOCLDY    67  61  82 SW3       30.19R
KILL DEVIL HLS CLOUDY    68  64  85 SW5       30.18R
MANTEO         NOT AVBL
CAPE HATTERAS  CLEAR     69  66  90 SW5       30.21R
TARBORO*       FAIR      60  60  97 CALM      30.19R
GOLDSBORO      MOCLDY    67  67 100 S5        30.18R
WASHINGTON     CLOUDY    67  64  89 S5        30.19R
GREENVILLE     PTCLDY    66  64  94 SW5       30.19S
NEW BERN       MOCLDY    68  65  90 CALM      30.21R
WILMINGTON     PTCLDY    66  64  93 CALM      30.20R
$$

VAZ048-261100-
ELSEWHERE

CITY           SKY/WX    TMP DP  RH WIND       PRES   REMARKS
HARRISBURG PA  MOCLDY    59  54  83 CALM      30.11R
BALTIMORE      MOCLDY    58  55  90 CALM      30.12R
ANNAPOLIS      CLEAR     61  59  93 CALM      30.11R FOG
ANDREWS AFB    FAIR      63  56  78 S3        30.11S
PHILADELPHIA   CLOUDY    64  55  72 W6        30.12R
HENDERSON NC   CLEAR     58  57  94 SW5       30.18R
GREENSBORO     MOCLDY    65  59  81 S3        30.16R
ROCKY MOUNT    PTCLDY    64  62  93 S5        30.18R
$$

VAZ100-261100-
MARINE

STATION/POSITION TIME  TEMP    WIND        PRES    WAVE   SWELL
                       AIR SEA DIR/SP/G            HT/PER HT/PER
                 (UTC) (F)     (DEG/KT/KT) (MB)    (FT/S) (FT/S)
BRANDYWINE LGT   0900   69     230/ 12/ 12 1019.7R
CAPE MAY NJ      0900   65 65  220/  5/  8 1019.5S
LEWES DE         0900   67 61  230/  5/  6 1019.7S
15NM E FENWICK I 0950   60 57              1020.6R   2/ 8
OCEAN-CITY-INLET 0900   61 60  280/  1/  1 1020.3R
WACHAPREAGUE VA  0900   67 73  240/  2/  3 1020.0R
THOMAS POINT MD  1000   66 62  190/  5/  5 1021.2R
GOOSES REEF MD   1000   67 65  180/  4/  6 1021.0R   0
COVE POINT MD    0900   67     200/  4/  6 1020.2R
SOLOMONS ISLAND  0900   63 65  320/  1/  2   N/A
BISHOPS HEAD MD  0900   69 71  200/  7/  8 1019.9R
PINEY POINT MD   0900          170/  3/  3   N/A
POTOMAC MD       1000   68 67  240/  8/  8 1019.4R   1
CAMBRIDGE MD     0900   65 65  190/  1/  2 1018.8R
LEWISETTA VA     0900   68 69  230/  8/ 10 1019.6R
RAPPAHANNOCK LGT 0900          190/ 10/ 10 1021.0R
STINGRAY PT      0900   69 67  240/ 12/ 12 1020.4R
YORK RVR RNG VA  0900   69     250/  9/ 11 1020.0R
YORKTOWN VA      0900   68 67  220/ 10/ 12 1020.2R
JAMESTOWN VA     1000   67 69  180/  4/  4   N/A
DOMINION TERM VA 0900   68     230/  8/  9 1020.8R
KIPTOPEKE VA     0900      66  220/  6/  7   N/A
CHES BAY BRIDGE  0900   69 66  200/ 11/ 12 1020.6R
CAPE HENRY VA    0900   69     200/ 11/ 14   N/A
CHESAPEAKE LGHT  0900   68     220/ 16/ 17 1021.3R
WILLOUBY STN VA  0900   69     220/ 12/ 14 1021.6R
CAPE HENRY BUOY  0912      63                N/A     2/ 8
1ST LANDING BUOY 1000   67 65  220/  8/ 10 1021.4R   1/ 3
CAPE CHARLES BUO 0926      62                N/A     2/10   2/10
OFFSHORE WE BUOY 0921      61                N/A     2/ 8   2/ 8
64NM E OF VA BCH 0950   63 58  220/ 10/ 12 1021.6R   3/ 9   2/ 9
DUCK PIER NC     0900   70 60  200/  9/ 12 1021.0R
44100 DUCK FRF   0924      65                N/A     2/ 9
44056 DUCK FRF   0911      62                N/A     2/ 8
OREGON INLET NC  0900   71 72  190/ 10/ 12 1022.0R
HATTERAS NC      0900   69 71  190/  3/  5 1022.0R
DIAMOND SHLS NC  0950   71 69  230/  6/  6 1023.0R   2/ 9   2/ 9
CAPE LOOKOUT NC  1000   C1F1C2F2C3F3C4F4C5F5C6F6C7F7C8M1C9!



USA.gov is the U.S. government's official web portal to all federal, state and local government web resources and services.